ONEWEB-0054, 45158

Orbit data source: Space-Track

ONEWEB-0054, 45158 is a payload satellite owned by One Web (UK) in LEO that was launched on Thu, 06 Feb 2020 UTC via a SOYUZ-2-1B launch vehicle from the Tyuratam Missile And Space Complex (TTMTR). Payload-class satellites include a variety of spacecraft equipped with specific instruments for various scientific and technological missions. These include communications satellites like Starlink; space stations such as the ISS; scientific satellites like the Hubble; Earth observation satellites from companies like Planet Labs, Umbra, and HawkEye 360; GPS; miniature CubeSats for education and research; and military/defense satellites.

Loading next visibility...
Identifier
45158, 2020-008AD
Orbit
LEO
Country
Flag of UKUK
Related business
Manufacturer
One Web
Mission
Operational Commercial Communications
Bus & Motor
ARROW, Unknown motor
Mass
148 kg wet, ~140 kg dry
Launch date (UTC)
2020-02-06 (6 years ago)
Launch vehicle
SOYUZ-2-1B
Launch site
Tyuratam Missile And Space Complex (TTMTR)
Object type
Payload
Rocket body
Debris
Shape & HBR
Trap Box + 2 Pan, 6.7 m
Radar Cross Section
3.464 m², Large (>1 m²)

Expand to show TLE details & history
Last TLE update: 17 hours ago

TLE from 17 hours ago
0 ONEWEB-0054
1 45158U 20008AD  25346.99950410  .00000490  00000-0  13676-2 0  9998
2 45158  87.8809  73.3788 0001610 105.8304 254.3001 13.10372951283640
Epoch: 2025-12-12T23:59Z
TLE epoch observation values (Epoch: 2025-12-12T23:59:17.154Z)
Latitude
Longitude
-8.37574°
Altitude
1,224.936 km
Speed
7.242 km/s
True Right ascension
04h 53m 30s
True Declination
0° 00' 00"
Sunlit
Object was in full shadow at epoch
Visualization orbit readout
Latitude
Unknown
Longitude
Unknown
Altitude
Unknown
Speed
Unknown
Apparent Right ascension
Unknown
Apparent Declination
Unknown
Sunlit
N/A
Visualization observer readout
Local Sidereal Time
15:45:00
Azimuth
Unknown
Elevation
Unknown
Doppler factor
Unknown
Orbital elements
Apogee altitude
1,220.06 km
Perigee altitude
1,217.613 km
Semi-major axis
7,596.973 km
Eccentricity
0.00016
Inclination
87.8809°
RAAN
73.3788°
Arg. of periapsis
105.8304°
True anomaly
254.28234°
Mean anomaly
254.3001°
Eccentric anomaly
254.29122°
Mean motion
3.2778 °/min
Orbital period
109.83 mins
BSTAR
0.0013676
Loading maneuver chart data...
Computing Atmospheric mass density...
Loading historical data...
Loading historical data...
Loading historical data...
Loading historical data...
Loading historical data...
Loading historical data...
Loading historical data...

Documentation

Showing up to 5 results
|